H1 CPF 2 NER 2022 7 17 9 198 01 glonass107 H2 0706501 9107 32393 2022 7 17 0 0 0 2022 7 20 23 45 0 900 1 1 0 0 0 1 H9 10 0 59777 0.00000 0 -4912575.969 19634753.231 15513090.001 10 0 59777 900.00000 0 -5804733.306 21156450.227 13002455.517 10 0 59777 1800.00000 0 -6423414.754 22456673.893 10239068.503 10 0 59777 2700.00000 0 -6791915.346 23481319.050 7276657.237 10 0 59777 3600.00000 0 -6943917.220 24184214.804 4172814.896 10 0 59777 4500.00000 0 -6921807.018 24529079.223 987876.038 10 0 59777 5400.00000 0 -6774630.077 24491077.614 -2216260.228 10 0 59777 6300.00000 0 -6555769.102 24057918.669 -5377336.989 10 0 59777 7200.00000 0 -6320446.526 23230442.312 -8433952.090 10 0 59777 8100.00000 0 -6123157.149 22022674.555 -11326752.491 10 0 59777 9000.00000 0 -6015140.366 20461347.102 -13999586.909 10 0 59777 9900.00000 0 -6041999.382 18584902.003 -16400594.121 10 0 59777 10800.00000 0 -6241568.355 16442023.130 -18483205.997 10 0 59777 11700.00000 0 -6642117.744 14089755.876 -20207046.155 10 0 59777 12600.00000 0 -7260973.630 11591293.547 -21538707.307 10 0 59777 13500.00000 0 -8103609.354 9013522.396 -22452393.005 10 0 59777 14400.00000 0 -9163247.885 6424426.982 -22930412.103 10 0 59777 15300.00000 0 -10420992.011 3890463.097 -22963517.038 10 0 59777 16200.00000 0 -11846477.437 1474006.457 -22551080.004 10 0 59777 17100.00000 0 -13399022.186 -769017.983 -21701103.931 10 0 59777 18000.00000 0 -15029225.031 -2791228.739 -20430068.188 10 0 59777 18900.00000 0 -16680947.033 -4555516.844 -18762611.809 10 0 59777 19800.00000 0 -18293594.273 -6036340.565 -16731059.937 10 0 59777 20700.00000 0 -19804607.064 -7220532.934 -14374802.126 10 0 59777 21600.00000 0 -21152052.206 -8107589.542 -11739533.802 10 0 59777 22500.00000 0 -22277210.140 -8709425.511 -8876374.886 10 0 59777 23400.00000 0 -23127048.732 -9049612.637 -5840882.131 10 0 59777 24300.00000 0 -23656479.836 -9162129.517 -2691973.847 10 0 59777 25200.00000 0 -23830303.539 -9089677.878 509212.361 10 0 59777 26100.00000 0 -23624757.815 -8881636.688 3700506.620 10 0 59777 27000.00000 0 -23028607.731 -8591740.962 6819915.377 10 0 59777 27900.00000 0 -22043727.566 -8275583.923 9806827.774 10 0 59777 28800.00000 0 -20685150.500 -7988048.699 12603195.878 10 0 59777 29700.00000 0 -18980582.903 -7780778.790 15154665.476 10 0 59777 30600.00000 0 -16969402.749 -7699794.913 17411635.107 10 0 59777 31500.00000 0 -14701183.444 -7783359.605 19330222.448 10 0 59777 32400.00000 0 -12233804.134 -8060180.510 20873119.177 10 0 59777 33300.00000 0 -9631224.902 -8548028.902 22010317.716 10 0 59777 34200.00000 0 -6961019.243 -9252832.442 22719695.760 10 0 59777 35100.00000 0 -4291766.176 -10168281.192 22987447.383 10 0 59777 36000.00000 0 -1690410.129 -11275964.271 22808352.488 10 0 59777 36900.00000 0 780301.973 -12546032.205 22185879.357 10 0 59777 37800.00000 0 3064200.310 -13938357.886 21132118.348 10 0 59777 38700.00000 0 5113790.120 -15404148.105 19667547.837 10 0 59777 39600.00000 0 6891981.288 -16887938.494 17820636.797 10 0 59777 40500.00000 0 8373378.350 -18329888.532 15627291.474 10 0 59777 41400.00000 0 9545078.138 -19668280.451 13130156.657 10 0 59777 42300.00000 0 10406942.726 -20842117.017 10377785.057 10 0 59777 43200.00000 0 10971337.619 -21793708.881 7423690.842 10 0 59777 44100.00000 0 11262347.499 -22471142.370 4325305.886 10 0 59777 45000.00000 0 11314503.913 -22830523.500 1142859.390 10 0 59777 45900.00000 0 11171079.929 -22837903.344 -2061796.947 10 0 59777 46800.00000 0 10882025.042 -22470803.337 -5226394.825 10 0 59777 47700.00000 0 10501628.755 -21719275.946 -8289462.235 10 0 59777 48600.00000 0 10086012.600 -20586455.879 -11191519.309 10 0 59777 49500.00000 0 9690557.424 -19088578.407 -13876233.569 10 0 59777 50400.00000 0 9367375.260 -17254463.938 -16291511.903 10 0 59777 51300.00000 0 9162932.884 -15124490.300 -18390508.202 10 0 59777 52200.00000 0 9115927.542 -12749095.495 -20132527.500 10 0 59777 53100.00000 0 9255504.377 -10186873.290 -21483809.538 10 0 59777 54000.00000 0 9599890.567 -7502340.549 -22418177.357 10 0 59777 54900.00000 0 10155503.592 -4763468.686 -22917539.091 10 0 59777 55800.00000 0 10916571.078 -2039081.132 -22972233.948 10 0 59777 56700.00000 0 11865278.375 603776.050 -22581216.290 10 0 59777 57600.00000 0 12972438.041 3102382.383 -21752074.608 10 0 59777 58500.00000 0 14198653.653 5400705.366 -20500885.132 10 0 59777 59400.00000 0 15495929.878 7451480.194 -18851902.758 10 0 59777 60300.00000 0 16809662.062 9217921.644 -16837094.846 10 0 59777 61200.00000 0 18080922.679 10674997.962 -14495526.370 10 0 59777 62100.00000 0 19248949.390 11810214.772 -11872607.632 10 0 59777 63000.00000 0 20253730.819 12623877.266 -9019218.400 10 0 59777 63900.00000 0 21038581.656 13128820.483 -5990724.929 10 0 59777 64800.00000 0 21552598.870 13349619.801 -2845908.459 10 0 59777 65700.00000 0 21752895.445 13321315.489 354174.310 10 0 59777 66600.00000 0 21606517.081 13087705.570 3547376.542 10 0 59777 67500.00000 0 21091960.427 12699279.573 6671669.302 10 0 59777 68400.00000 0 20200228.012 12210880.908 9666348.497 10 0 59777 69300.00000 0 18935374.448 11679197.122 12473216.821 10 0 59777 70200.00000 0 17314519.847 11160184.625 15037717.380 10 0 59777 71100.00000 0 15367328.793 10706537.218 17309996.612 10 0 59777 72000.00000 0 13134975.708 10365305.871 19245875.529 10 0 59777 72900.00000 0 10668638.979 10175770.762 20807710.332 10 0 59777 73800.00000 0 8027585.893 10167655.857 21965125.660 10 0 59777 74700.00000 0 5276927.657 10359761.780 22695606.248 10 0 59777 75600.00000 0 2485137.331 10759075.069 22984935.694 10 0 59777 76500.00000 0 -278566.596 11360391.796 22827473.881 10 0 59777 77400.00000 0 -2946862.632 12146471.872 22226267.731 10 0 59777 78300.00000 0 -5456885.461 13088718.017 21192993.142 10 0 59777 79200.00000 0 -7752596.023 14148351.272 19747729.061 10 0 59777 80100.00000 0 -9786864.461 15278033.994 17918567.926 10 0 59777 81000.00000 0 -11523179.978 16423872.311 15741069.787 10 0 59777 81900.00000 0 -12936917.133 17527713.954 13257570.431 10 0 59777 82800.00000 0 -14016106.613 18529644.670 10516356.870 10 0 59777 83700.00000 0 -14761679.362 19370577.932 7570726.148 10 0 59777 84600.00000 0 -15187175.065 19994828.491 4477945.855 10 0 59777 85500.00000 0 -15317928.500 20352560.831 1298136.938 10 0 59778 0.00000 0 -15189769.415 20402008.839 -1906898.787 10 0 59778 900.00000 0 -14847291.930 20111372.506 -5074884.806 10 0 59778 1800.00000 0 -14341767.948 19460311.250 -8144281.366 10 0 59778 2700.00000 0 -13728793.549 18440970.585 -11055483.947 10 0 59778 3600.00000 0 -13065768.780 17058498.364 -13751980.796 10 0 59778 4500.00000 0 -12409317.880 15331028.688 -16181448.528 10 0 59778 5400.00000 0 -11812759.231 13289133.726 -18296764.365 10 0 59778 6300.00000 0 -11323731.854 10974766.044 -20056915.748 10 0 59778 7200.00000 0 -10982078.393 8439735.221 -21427790.129 10 0 59778 8100.00000 0 -10818073.455 5743781.756 -22382830.411 10 0 59778 9000.00000 0 -10851071.497 2952327.716 -22903544.096 10 0 59778 9900.00000 0 -11088630.740 133996.949 -22979856.958 10 0 59778 10800.00000 0 -11526149.678 -2641993.211 -22610305.031 10 0 59778 11700.00000 0 -12147031.344 -5308461.576 -21802061.563 10 0 59778 12600.00000 0 -12923368.548 -7802806.058 -20570798.542 10 0 59778 13500.00000 0 -13817121.615 -10069355.663 -18940385.325 10 0 59778 14400.00000 0 -14781739.658 -12061435.019 -16942429.818 10 0 59778 15300.00000 0 -15764157.814 -13743056.651 -14615670.519 10 0 59778 16200.00000 0 -16707087.098 -15090171.581 -12005230.537 10 0 59778 17100.00000 0 -17551501.037 -16091427.007 -9161747.306 10 0 59778 18000.00000 0 -18239214.759 -16748400.134 -6140394.346 10 0 59778 18900.00000 0 -18715447.997 -17075299.083 -2999813.536 10 0 59778 19800.00000 0 -18931263.830 -17098144.048 199021.623 10 0 59778 20700.00000 0 -18845779.901 -16853463.642 3393989.665 10 0 59778 21600.00000 0 -18428058.178 -16386561.862 6523028.609 10 0 59778 22500.00000 0 -17658592.651 -15749429.212 9525343.484 10 0 59778 23400.00000 0 -16530331.221 -14998386.549 12342589.953 10 0 59778 24300.00000 0 -15049187.545 -14191561.588 14920010.719 10 0 59778 25200.00000 0 -13234020.055 -13386304.982 17207502.257 10 0 59778 26100.00000 0 -11116077.796 -12636655.432 19160590.853 10 0 59778 27000.00000 0 -8737935.132 -11990961.095 20741298.879 10 0 59778 27900.00000 0 -6151958.685 -11489757.872 21918884.498 10 0 59778 28800.00000 0 -3418369.617 -11163994.222 22670440.421 10 0 59778 29700.00000 0 -602981.107 -11033677.442 22981340.296 10 0 59778 30600.00000 0 2225295.587 -11106998.577 22845524.128 10 0 59778 31500.00000 0 4997073.341 -11379972.915 22265617.247 10 0 59778 32400.00000 0 7645131.291 -11836611.316 21252880.508 10 0 59778 33300.00000 0 10106967.616 -12449615.297 19826992.527 10 0 59778 34200.00000 0 12327157.315 -13181566.677 18015667.998 10 0 59778 35100.00000 0 14259417.441 -13986561.745 15854119.253 10 0 59778 36000.00000 0 15868294.414 -14812221.057 13384371.245 10 0 59778 36900.00000 0 17130403.665 -15601989.983 10654443.145 10 0 59778 37800.00000 0 18035170.713 -16297632.715 7717412.419 10 0 59778 38700.00000 0 18585043.630 -16841814.107 4630379.642 10 0 59778 39600.00000 0 18795169.072 -17180659.844 1453354.552 10 0 59778 40500.00000 0 18692546.738 -17266186.276 -1751914.574 10 0 59778 41400.00000 0 18314699.099 -17058496.711 -4923144.971 10 0 59778 42300.00000 0 17707913.643 -16527650.852 -7998732.785 10 0 59778 43200.00000 0 16925132.919 -15655127.946 -10918951.757 10 0 59778 44100.00000 0 16023582.293 -14434821.407 -13627113.558 10 0 59778 45000.00000 0 15062236.227 -12873522.576 -16070666.968 10 0 59778 45900.00000 0 14099230.348 -10990872.757 -18202214.679 10 0 59778 46800.00000 0 13189328.499 -8818784.991 -19980428.325 10 0 59778 47700.00000 0 12381551.312 -6400359.210 -21370844.479 10 0 59778 48600.00000 0 11717065.703 -3788335.375 -22346526.908 10 0 59778 49500.00000 0 11227423.448 -1043148.243 -22888583.040 10 0 59778 50400.00000 0 10933222.231 1769336.131 -22986525.332 10 0 59778 51300.00000 0 10843244.763 4580309.159 -22638471.169 10 0 59778 52200.00000 0 10954111.589 7320631.587 -21851177.823 10 0 59778 53100.00000 0 11250461.786 9923461.124 -20639911.916 10 0 59778 54000.00000 0 11705653.849 12326788.035 -19028155.796 10 0 59778 54900.00000 0 12282957.328 14475774.540 -17047156.113 10 0 59778 55800.00000 0 12937185.360 16324801.732 -14735322.787 10 0 59778 56700.00000 0 13616699.733 17839139.838 -12137489.346 10 0 59778 57600.00000 0 14265704.366 18996172.948 -9304048.238 10 0 59778 58500.00000 0 14826730.840 19786127.728 -6289977.352 10 0 59778 59400.00000 0 15243211.237 20212276.219 -3153776.153 10 0 59778 60300.00000 0 15462029.620 20290604.713 43668.223 10 0 59778 61200.00000 0 15435944.075 20048963.016 3240262.844 10 0 59778 62100.00000 0 15125776.450 19525730.295 6373915.779 10 0 59778 63000.00000 0 14502276.474 18768054.057 9383744.089 10 0 59778 63900.00000 0 13547580.585 17829736.816 12211259.071 10 0 59778 64800.00000 0 12256202.714 16768859.906 14801505.386 10 0 59778 65700.00000 0 10635514.000 15645244.913 17104131.583 10 0 59778 66600.00000 0 8705689.891 14517860.036 19074370.911 10 0 59778 67500.00000 0 6499125.481 13442280.880 20673913.253 10 0 59778 68400.00000 0 4059342.213 12468312.732 21871651.259 10 0 59778 69300.00000 0 1439430.469 11637874.483 22644286.193 10 0 59778 70200.00000 0 -1299908.104 10983233.182 22976781.912 10 0 59778 71100.00000 0 -4092637.958 10525663.356 22862658.254 10 0 59778 72000.00000 0 -6869892.693 10274587.310 22304118.188 10 0 59778 72900.00000 0 -9562600.407 10227232.364 21312006.264 10 0 59778 73800.00000 0 -12104122.838 10368819.188 19905599.002 10 0 59778 74700.00000 0 -14432798.938 10673273.084 18112231.127 10 0 59778 75600.00000 0 -16494287.573 11104427.984 15966764.625 10 0 59778 76500.00000 0 -18243612.220 11617672.117 13510910.665 10 0 59778 77400.00000 0 -19646822.818 12161965.569 10792417.434 10 0 59778 78300.00000 0 -20682205.999 12682144.167 7864139.582 10 0 59778 79200.00000 0 -21340993.758 13121411.849 4783007.442 10 0 59778 80100.00000 0 -21627541.677 13423915.606 1608916.432 10 0 59778 81000.00000 0 -21558970.216 13537293.512 -1596441.389 10 0 59778 81900.00000 0 -21164285.230 13415087.416 -4770780.357 10 0 59778 82800.00000 0 -20483015.781 13018917.652 -7852434.780 10 0 59778 83700.00000 0 -19563427.743 12320327.262 -10781558.977 10 0 59778 84600.00000 0 -18460389.346 11302217.216 -13501290.093 10 0 59778 85500.00000 0 -17232979.409 9959811.614 -15958850.807 10 0 59779 0.00000 0 -15941939.554 8301111.772 -18106570.484 10 0 59779 900.00000 0 -14647077.174 6346818.553 -19902806.347 10 0 59779 1800.00000 0 -13404729.973 4129727.844 -21312744.471 10 0 59779 2700.00000 0 -12265395.940 1693620.705 -22309069.670 10 0 59779 3600.00000 0 -11271629.303 -908304.213 -22872489.087 10 0 59779 4500.00000 0 -10456289.287 -3615392.457 -22992101.266 10 0 59779 5400.00000 0 -9841214.329 -6361809.104 -22665603.994 10 0 59779 6300.00000 0 -9436376.464 -9079034.292 -21899337.285 10 0 59779 7200.00000 0 -9239550.612 -11698476.394 -20708160.816 10 0 59779 8100.00000 0 -9236511.995 -14154095.548 -19115168.096 10 0 59779 9000.00000 0 -9401753.036 -16384929.677 -17151242.475 10 0 59779 9900.00000 0 -9699689.380 -18337418.899 -14854463.106 10 0 59779 10800.00000 0 -10086304.283 -19967432.486 -12269371.666 10 0 59779 11700.00000 0 -10511162.164 -21241914.584 -9446113.330 10 0 59779 12600.00000 0 -10919706.535 -22140080.483 -6439468.117 10 0 59779 13500.00000 0 -11255745.327 -22654113.848 -3307790.893 10 0 59779 14400.00000 0 -11464018.557 -22789336.025 -111880.336 10 0 59779 15300.00000 0 -11492739.524 -22563840.547 3086201.190 10 0 59779 16200.00000 0 -11296001.601 -22007608.440 6224333.773 10 0 59779 17100.00000 0 -10835948.130 -21161141.734 9241548.447 10 0 59779 18000.00000 0 -10084612.824 -20073672.931 12079214.050 10 0 59779 18900.00000 0 -9025351.824 -18801026.019 14682179.062 10 0 59779 19800.00000 0 -7653805.716 -17403219.309 16999845.882 10 0 59779 20700.00000 0 -5978349.662 -15941911.181 18987156.353 10 0 59779 21600.00000 0 -4020011.263 -14477796.322 20605469.312 10 0 59779 22500.00000 0 -1811858.124 -13068061.978 21823313.099 10 0 59779 23400.00000 0 602120.557 -11764011.061 22616998.460 10 0 59779 24300.00000 0 3168592.979 -10608951.782 22971080.090 10 0 59779 25200.00000 0 5826859.613 -9636442.114 22878657.980 10 0 59779 26100.00000 0 8511142.608 -8868962.427 22341512.759 10 0 59779 27000.00000 0 11153095.283 -8317071.585 21370072.392 10 0 59779 27900.00000 0 13684427.997 -7979081.387 19983210.741 10 0 59779 28800.00000 0 16039541.535 -7841262.535 18207881.698 10 0 59779 29700.00000 0 18158058.838 -7878572.845 16078595.741 10 0 59779 30600.00000 0 19987149.933 -8055876.427 13636748.769 10 0 59779 31500.00000 0 21483553.282 -8329601.823 10929816.145 10 0 59779 32400.00000 0 22615209.535 -8649768.441 8010427.507 10 0 59779 33300.00000 0 23362439.730 -8962294.969 4935340.413 10 0 59779 34200.00000 0 23718619.085 -9211491.472 1764333.102 10 0 59779 35100.00000 0 23690318.846 -9342628.975 -1440961.673 10 0 59779 36000.00000 0 23296910.982 -9304477.063 -4618258.563 10 0 59779 36900.00000 0 22569653.284 -9051701.382 -7705833.274 10 0 59779 37800.00000 0 21550294.249 -8547018.985 -10643723.836 10 0 59779 38700.00000 0 20289257.334 -7763019.723 -13374895.796 10 0 59779 39600.00000 0 18843481.717 -6683576.245 -15846348.404 10 0 59779 40500.00000 0 17274010.901 -5304782.537 -18010140.401 10 0 59779 41400.00000 0 15643430.747 -3635380.875 -19824315.828 10 0 59779 42300.00000 0 14013264.497 -1696658.613 -21253712.318 10 0 59779 43200.00000 0 12441433.695 478181.663 -22270636.990 10 0 59779 44100.00000 0 10979890.778 2845153.205 -22855397.545 10 0 59779 45000.00000 0 9672521.654 5351071.116 -22996679.038 10 0 59779 45900.00000 0 8553405.027 7935528.385 -22691759.644 10 0 59779 46800.00000 0 7645500.229 10533180.877 -21946561.672 10 0 59779 47700.00000 0 6959817.449 13076247.432 -20775536.981 10 0 59779 48600.00000 0 6495104.137 15497122.321 -19201388.941 10 0 59779 49500.00000 0 6238059.907 17730992.584 -17254635.921 10 0 59779 50400.00000 0 6164070.359 19718352.245 -14973024.253 10 0 59779 51300.00000 0 6238428.495 21407309.528 -12400801.362 10 0 59779 52200.00000 0 6417992.090 22755591.521 -9587862.431 10 0 59779 53100.00000 0 6653207.004 23732162.910 -6588786.624 10 0 59779 54000.00000 0 6890410.886 24318391.443 -3461781.022 10 0 59779 54900.00000 0 7074319.790 24508711.391 -267552.518 10 0 59779 55800.00000 0 7150592.278 24310757.247 2931870.432 10 0 59779 56700.00000 0 7068362.096 23744962.059 6074343.226 10 0 59779 57600.00000 0 6782631.641 22843637.284 9098813.992 10 0 59779 58500.00000 0 6256424.202 21649572.848 11946511.989 10 0 59779 59400.00000 0 5462602.966 20214216.356 14562092.097 10 0 59779 60300.00000 0 4385278.815 18595508.022 16894712.812 10 0 59779 61200.00000 0 3020746.280 16855462.423 18899026.470 10 0 59779 62100.00000 0 1377906.846 15057598.652 20536062.394 10 0 59779 63000.00000 0 -521839.661 13264326.695 21773985.774 10 0 59779 63900.00000 0 -2645232.412 11534399.580 22588717.601 10 0 59779 64800.00000 0 -4948290.402 9920537.840 22964403.756 10 0 59779 65700.00000 0 -7377910.354 8467325.451 22893724.279 10 0 59779 66600.00000 0 -9873856.111 7209464.959 22378036.861 10 0 59779 67500.00000 0 -12371057.559 6170464.266 21427351.777 10 0 59779 68400.00000 0 -14802124.056 5361809.430 20060138.596 10 0 59779 69300.00000 0 -17099968.184 4782657.418 18302968.237 10 0 59779 70200.00000 0 -19200430.881 4420060.872 16189997.050 10 0 59779 71100.00000 0 -21044798.791 4249714.557 13762302.657 10 0 59779 72000.00000 0 -22582108.805 4237191.162 11067084.288 10 0 59779 72900.00000 0 -23771143.690 4339613.451 8156743.086 10 0 59779 73800.00000 0 -24582035.434 4507691.210 5087860.275 10 0 59779 74700.00000 0 -24997409.322 4688036.023 1920093.413 10 0 59779 75600.00000 0 -25013021.143 4825655.024 -1284987.423 10 0 59779 76500.00000 0 -24637861.231 4866517.217 -4465100.395 10 0 59779 77400.00000 0 -23893721.568 4760082.920 -7558465.554 10 0 59779 78300.00000 0 -22814244.855 4461688.517 -10505007.332 10 0 59779 79200.00000 0 -21443496.191 3934684.968 -13247522.069 10 0 59779 80100.00000 0 -19834118.084 3152239.109 -15732787.624 10 0 59779 81000.00000 0 -18045146.761 2098721.165 -17912593.573 10 0 59779 81900.00000 0 -16139581.705 770619.408 -19744672.324 10 0 59779 82800.00000 0 -14181810.340 -823057.053 -21193513.529 10 0 59779 83700.00000 0 -12234995.444 -2660904.987 -22231046.723 10 0 59779 84600.00000 0 -10358533.945 -4709778.771 -22837179.754 10 0 59779 85500.00000 0 -8605692.567 -6925940.774 -23000183.254 10 0 59780 0.00000 0 -7021518.112 -9256663.239 -22716914.440 10 0 59780 900.00000 0 -5641107.656 -11642217.336 -21992876.063 10 0 59780 1800.00000 0 -4488311.828 -14018164.491 -20842110.042 10 0 59780 2700.00000 0 -3574921.275 -16317859.998 -19286927.227 10 0 59780 3600.00000 0 -2900371.453 -18475062.655 -17357478.452 10 0 59780 4500.00000 0 -2451976.289 -20426543.888 -15091174.572 10 0 59780 5400.00000 0 -2205680.287 -22114588.187 -12531966.096 10 0 59780 6300.00000 0 -2127296.859 -23489281.087 -9729495.620 10 0 59780 7200.00000 0 -2174180.336 -24510489.395 -6738138.962 10 0 59780 8100.00000 0 -2297260.785 -25149450.985 -3615953.097 10 0 59780 9000.00000 0 -2443355.375 -25389907.519 -423550.990 10 0 59780 9900.00000 0 -2557658.270 -25228732.426 2777074.794 10 0 59780 10800.00000 0 -2586303.261 -24676027.570 5923756.769 10 0 59780 11700.00000 0 -2478890.129 -23754684.290 8955361.841 10 0 59780 12600.00000 0 -2190867.141 -22499427.042 11812981.261 10 0 59780 13500.00000 0 -1685668.027 -20955379.622 14441077.771 10 0 59780 14400.00000 0 -936512.117 -19176214.065 16788567.305 10 0 59780 15300.00000 0 72209.493 -17221959.795 18809813.892 10 0 59780 16200.00000 0 1344021.422 -15156564.843 20465518.363 10 0 59780 17100.00000 0 2869964.899 -13045311.155 21723483.586 10 0 59780 18000.00000 0 4628730.142 -10952192.076 22559241.398 10 0 59780 18900.00000 0 6587316.062 -8937361.435 22956529.229 10 0 59780 19800.00000 0 8702190.987 -7054760.482 22907607.300 10 0 59780 20700.00000 0 10920906.990 -5350021.403 22413410.269 10 0 59780 21600.00000 0 13184101.471 -3858734.405 21483530.398 10 0 59780 22500.00000 0 15427803.300 -2605150.043 20136032.424 10 0 59780 23400.00000 0 17585947.848 -1601370.283 18397103.535 10 0 59780 24300.00000 0 19592996.413 -847061.189 16300544.965 10 0 59780 25200.00000 0 21386550.892 -329698.249 13887114.806 10 0 59780 26100.00000 0 22909854.460 -25332.951 11203734.629 10 0 59780 27000.00000 0 24114073.668 100152.796 8302575.242 10 0 59780 27900.00000 0 24960266.317 89358.447 5240039.385 10 0 59780 28800.00000 0 25420952.581 -8684.830 2075661.474 10 0 59780 29700.00000 0 25481223.477 -140837.482 -1129053.808 10 0 59780 30600.00000 0 25139340.332 -252349.259 -4311831.020 10 0 59780 31500.00000 0 24406800.314 -289424.639 -7410837.536 10 0 59780 32400.00000 0 23307865.700 -201746.524 -10365887.128 10 0 59780 33300.00000 0 21878577.111 55149.266 -13119609.744 10 0 59780 34200.00000 0 20165292.610 517749.720 -15618564.452 10 0 59780 35100.00000 0 18222814.383 1212780.814 -17814274.018 10 0 59780 36000.00000 0 16112181.709 2155839.874 -19664161.299 10 0 59780 36900.00000 0 13898222.702 3350502.166 -21132369.745 10 0 59780 37800.00000 0 11646966.937 4787939.795 -22190452.803 10 0 59780 38700.00000 0 9423026.462 6447069.576 -22817919.644 10 0 59780 39600.00000 0 7287053.778 8295224.399 -23002627.326 10 0 59780 40500.00000 0 5293381.708 10289320.935 -22741012.488 10 0 59780 41400.00000 0 3487942.320 12377475.953 -22038158.494 10 0 59780 42300.00000 0 1906550.437 14501004.857 -20907696.947 10 0 59780 43200.00000 0 573621.952 16596720.224 -19371545.367 10 0 59780 44100.00000 0 -498620.794 18599435.584 -17459485.785 10 0 59780 45000.00000 0 -1310424.496 20444570.890 -15208591.890 10 0 59780 45900.00000 0 -1874250.715 22070751.704 -12662515.167 10 0 59780 46800.00000 0 -2214003.585 23422294.092 -9870643.147 10 0 59780 47700.00000 0 -2363772.524 24451471.513 -6887145.512 10 0 59780 48600.00000 0 -2366143.465 25120468.913 -3769926.083 10 0 59780 49500.00000 0 -2270150.358 25402941.933 -579500.679 10 0 59780 50400.00000 0 -2128953.857 25285115.490 2622177.335 10 0 59780 51300.00000 0 -1997345.867 24766375.171 5772920.910 10 0 59780 52200.00000 0 -1929186.049 23859326.128 8811518.957 10 0 59780 53100.00000 0 -1974879.353 22589316.493 11678927.790 10 0 59780 54000.00000 0 -2179002.081 20993444.895 14319420.858 10 0 59780 54900.00000 0 -2578177.688 19119093.302 16681674.119 10 0 59780 55800.00000 0 -3199292.995 17022046.423 18719765.584 10 0 59780 56700.00000 0 -4058131.154 14764276.138 20394069.570 10 0 59780 57600.00000 0 -5158480.088 12411483.410 21672028.253 10 0 59780 58500.00000 0 -6491755.102 10030500.172 22528785.582 10 0 59780 59400.00000 0 -8037152.705 7686659.394 22947671.395 10 0 59780 60300.00000 0 -9762330.421 5441242.635 22920526.501 10 0 59780 61200.00000 0 -11624585.177 3349111.121 22447862.434 10 0 59780 62100.00000 0 -13572481.996 1456618.550 21538852.818 10 0 59780 63000.00000 0 -15547865.739 -200108.100 20211156.367 10 0 59780 63900.00000 0 -17488172.402 -1596448.718 18490574.772 10 0 59780 64800.00000 0 -19328943.816 -2720078.726 16410551.845 10 0 59780 65700.00000 0 -21006440.815 -3571234.313 14011523.352 10 0 59780 66600.00000 0 -22460245.500 -4162444.272 11340129.999 10 0 59780 67500.00000 0 -23635743.535 -4517740.981 8448308.746 10 0 59780 68400.00000 0 -24486382.178 -4671385.008 5392280.146 10 0 59780 69300.00000 0 -24975609.073 -4666158.380 2231451.708 10 0 59780 70200.00000 0 -25078410.137 -4551299.813 -972741.025 10 0 59780 71100.00000 0 -24782381.840 -4380170.401 -4158032.637 10 0 59780 72000.00000 0 -24088292.745 -4207749.505 -7262541.276 10 0 59780 72900.00000 0 -23010110.814 -4088067.793 -10225973.272 10 0 59780 73800.00000 0 -21574495.496 -4071686.805 -12990795.105 10 0 59780 74700.00000 0 -19819776.184 -4203332.249 -15503349.630 10 0 59780 75600.00000 0 -17794460.062 -4519781.525 -17714894.944 10 0 59780 76500.00000 0 -15555331.961 -5048094.989 -19582545.989 10 0 59780 77400.00000 0 -13165225.700 -5804265.833 -21070101.074 10 0 59780 78300.00000 0 -10690559.742 -6792345.688 -22148737.986 10 0 59780 79200.00000 0 -8198739.438 -8004083.121 -22797566.993 10 0 59780 80100.00000 0 -5755533.402 -9419090.642 -23004030.716 10 0 59780 81000.00000 0 -3422532.268 -11005533.904 -22764143.814 10 0 59780 81900.00000 0 -1254794.341 -12721315.078 -22082568.277 10 0 59780 82800.00000 0 701225.046 -14515701.792 -20972523.040 10 0 59780 83700.00000 0 2409375.681 -16331334.587 -19455529.634 10 0 59780 84600.00000 0 3845076.550 -18106530.036 -17560998.415 10 0 59780 85500.00000 0 4996090.262 -19777784.099 -15325662.904 99